FW5493 Weather Reports


Display with metric or nautical units.
time (UTC)temp
F
wind
direction
speed
MPH
gust
MPH
rain 1hr
in
rain 24hr
in
rain mn
in
humidity
%
barometer
mb
20260504044536 56 0 0.0 10.0 0.00 0.00 0.00 38 1011.0
20260504043041 56 0 2.0 11.0 0.00 0.00 0.00 37 1011.0
20260504041530 56 0 0.0 10.0 0.00 0.00 0.00 36 1010.6
20260504040035 56 276 5.0 8.0 0.00 0.00 0.00 37 1010.6
20260504034536 58 289 3.0 7.0 0.00 0.00 0.00 33 1010.5
20260504033032 59 266 2.0 6.0 0.00 0.00 0.00 32 1010.2
20260504031530 58 314 2.0 3.0 0.00 0.00 0.00 34 1010.1
20260504030029 60 314 3.0 5.0 0.00 0.00 0.00 31 1010.0
20260504024532 63 325 2.0 4.0 0.00 0.00 0.00 30 1009.8
20260504023030 65 325 3.0 5.0 0.00 0.00 0.00 28 1009.7
20260504021535 67 316 3.0 6.0 0.00 0.00 0.00 28 1009.7
20260504020037 69 315 4.0 8.0 0.00 0.00 0.00 25 1009.7
20260504014537 71 319 6.0 10.0 0.00 0.00 0.00 21 1009.7
20260504013031 72 333 5.0 9.0 0.00 0.00 0.00 20 1009.7
20260504011532 73 311 6.0 11.0 0.00 0.00 0.00 21 1009.9
20260504010032 73 301 7.0 13.0 0.00 0.00 0.00 16 1009.9
20260504004534 73 287 7.0 18.0 0.00 0.00 0.00 15 1009.9
20260504003029 75 299 11.0 15.0 0.00 0.00 0.00 15 1010.2
20260504001532 76 307 13.0 18.0 0.00 0.00 0.00 14 1010.2
20260504000029 76 306 10.0 17.0 0.00 0.00 0.00 14 1010.3
20260503234532 76 330 14.0 20.0 0.00 0.00 0.00 14 1010.3
20260503233029 76 291 13.0 19.0 0.00 0.00 0.00 16 1010.5
20260503231532 77 292 3.0 16.0 0.00 0.00 0.00 17 1010.5
20260503230032 76 301 6.0 18.0 0.00 0.00 0.00 17 1010.7
20260503224529 76 343 8.0 17.0 0.00 0.00 0.00 18 1011.1
20260503223028 76 288 5.0 15.0 0.00 0.00 0.00 16 1011.1
20260503221532 76 306 11.0 18.0 0.00 0.00 0.00 17 1011.4
20260503220032 76 290 6.0 14.0 0.00 0.00 0.00 19 1011.6
20260503214540 76 288 9.0 17.0 0.00 0.00 0.00 19 1011.8
20260503213030 75 279 10.0 24.0 0.00 0.00 0.00 20 1012.1
20260503211529 75 268 9.0 15.0 0.00 0.00 0.00 21 1012.3
20260503210034 75 305 11.0 16.0 0.00 0.00 0.00 21 1012.7
20260503204534 75 294 9.0 21.0 0.00 0.00 0.00 22 1012.8
20260503203029 74 271 8.0 16.0 0.00 0.00 0.00 23 1012.9
20260503201532 74 261 10.0 18.0 0.00 0.00 0.00 22 1013.1
20260503200041 73 202 5.0 16.0 0.00 0.00 0.00 24 1013.4
20260503194530 72 242 4.0 15.0 0.00 0.00 0.00 25 1013.8
20260503193036 72 303 6.0 15.0 0.00 0.00 0.00 24 1014.0
20260503191529 72 292 9.0 17.0 0.00 0.00 0.00 25 1014.2
20260503190031 72 262 6.0 17.0 0.00 0.00 0.00 27 1014.4
20260503184539 71 273 10.0 17.0 0.00 0.00 0.00 27 1014.4
20260503183030 71 284 8.0 14.0 0.00 0.00 0.00 28 1014.7
20260503181532 71 265 9.0 17.0 0.00 0.00 0.00 29 1015.0
20260503180044 70 298 8.0 16.0 0.00 0.00 0.00 32 1015.1
20260503174543 69 275 2.0 15.0 0.00 0.00 0.00 32 1015.3
20260503173039 69 183 4.0 16.0 0.00 0.00 0.00 32 1015.3
20260503171533 69 304 9.0 15.0 0.00 0.00 0.00 33 1015.5
20260503081539 43 295 3.0 4.0 0.00 0.00 0.00 77 1018.4